Location: *
(55.6049°S, 142.1985°W)
Time: 23:13:20
(UTC+00:00)

Okean O Rocket - Pass Details

Date: 12 May 2021
Orbit: 622 x 645 km, 98.2° (Epoch: 18 June)

Event Time Altitude Azimuth Distance (km) Brightness Sun altitude
Rises 15:40:02 0° 358° (N) 2,914 5.2 -13.0°
Reaches altitude 10° 15:42:18 10° 351° (N) 2,017 4.3 -12.7°
Maximum altitude 15:46:29 43° 278° (W) 908 2.0 -12.1°
Drops below altitude 10° 15:50:45 10° 206° (SSW) 2,054 3.8 -11.5°
Sets 15:53:05 0° 199° (SSW) 2,974 4.7 -11.2°
